When you browse on this site, cookies collect data to enhance your experience and personalize the content and advertising you see.
Visit our Privacy Policy to learn more. By continuing to use the site, you agree to this use of cookies and data.
  • In Germany
  • List of Countries
  • For 7 days
  • Water Temperature
  • Weather Map
  • Weather Widgets
  • user-avatar
    Login

    Hourly Weather Narwik

    Today, 3 April, Friday

    Time Temperature Precipitation Wind Pressure Humidity
    00:00 -8°C° 0.1 mm 1 mps 726 mmHg 91%
    01:00 -8°C° 0.1 mm 0 mps 726 mmHg 91%
    02:00 -8°C° 0 mm 0 mps 727 mmHg 91%
    03:00 -9°C° 0 mm 1 mps 727 mmHg 92%
    04:00 -9°C° 0 mm 1 mps 727 mmHg 92%
    05:00 -9°C° 0 mm 1 mps 727 mmHg 92%
    06:00 -9°C° 0 mm 1 mps 728 mmHg 91%
    07:00 -8°C° 0 mm 1 mps 728 mmHg 91%
    08:00 -7°C° 0.2 mm 1 mps 729 mmHg 91%
    09:00 -6°C° 0.2 mm 1 mps 729 mmHg 91%
    10:00 -4°C° 0.2 mm 1 mps 729 mmHg 91%
    11:00 -5°C° 0.4 mm 2 mps 730 mmHg 88%
    12:00 -6°C° 0.4 mm 3 mps 730 mmHg 86%
    13:00 -5°C° 0.4 mm 3 mps 730 mmHg 83%
    14:00 -5°C° 0.4 mm 3 mps 731 mmHg 84%
    15:00 -6°C° 0.4 mm 3 mps 731 mmHg 86%
    16:00 -6°C° 0.4 mm 3 mps 732 mmHg 87%
    17:00 -6°C° 0.5 mm 3 mps 732 mmHg 89%
    18:00 -7°C° 0.5 mm 3 mps 733 mmHg 90%
    19:00 -7°C° 0.5 mm 3 mps 734 mmHg 92%
    20:00 -8°C° 0.4 mm 3 mps 734 mmHg 92%
    21:00 -7°C° 0.4 mm 2 mps 735 mmHg 91%
    22:00 -8°C° 0.4 mm 2 mps 736 mmHg 91%
    23:00 -8°C° 0.2 mm 2 mps 736 mmHg 90%

    Tomorrow, 4 April, Saturday

    Time Temperature Precipitation Wind Pressure Humidity
    00:00 -8°C° 0.2 mm 1 mps 737 mmHg 89%
    01:00 -8°C° 0.2 mm 1 mps 738 mmHg 89%
    02:00 -8°C° 0.1 mm 1 mps 738 mmHg 89%
    03:00 -9°C° 0.1 mm 1 mps 739 mmHg 90%
    04:00 -10°C° 0.1 mm 2 mps 740 mmHg 90%
    05:00 -10°C° 0 mm 2 mps 740 mmHg 89%
    06:00 -10°C° 0 mm 2 mps 741 mmHg 88%
    07:00 -9°C° 0 mm 2 mps 741 mmHg 87%
    08:00 -8°C° 0.1 mm 2 mps 742 mmHg 87%
    09:00 -7°C° 0.1 mm 2 mps 743 mmHg 87%
    10:00 -6°C° 0.1 mm 2 mps 743 mmHg 87%
    11:00 -6°C° 0.2 mm 2 mps 744 mmHg 84%
    12:00 -5°C° 0.2 mm 2 mps 745 mmHg 82%
    13:00 -5°C° 0.2 mm 2 mps 746 mmHg 79%
    14:00 -5°C° 0.4 mm 2 mps 746 mmHg 80%
    15:00 -6°C° 0.4 mm 3 mps 747 mmHg 80%
    16:00 -6°C° 0.4 mm 3 mps 748 mmHg 81%
    17:00 -6°C° 0.3 mm 2 mps 749 mmHg 83%
    18:00 -7°C° 0.3 mm 2 mps 749 mmHg 85%
    19:00 -8°C° 0.3 mm 2 mps 750 mmHg 87%
    20:00 -8°C° 0.3 mm 2 mps 751 mmHg 88%
    21:00 -8°C° 0.3 mm 2 mps 751 mmHg 88%
    22:00 -8°C° 0.3 mm 2 mps 752 mmHg 89%
    23:00 -8°C° 0.3 mm 2 mps 753 mmHg 89%

    Day after tomorrow, 5 April, Sunday

    Time Temperature Precipitation Wind Pressure Humidity
    00:00 -8°C° 0.3 mm 2 mps 753 mmHg 89%
    01:00 -8°C° 0.3 mm 2 mps 754 mmHg 90%
    02:00 -9°C° 0.2 mm 3 mps 754 mmHg 89%
    03:00 -10°C° 0.2 mm 3 mps 755 mmHg 89%
    04:00 -10°C° 0.2 mm 3 mps 755 mmHg 89%
    05:00 -10°C° 0.2 mm 3 mps 756 mmHg 90%
    06:00 -9°C° 0.2 mm 3 mps 756 mmHg 90%
    07:00 -9°C° 0.2 mm 3 mps 756 mmHg 91%
    08:00 -8°C° 0 mm 3 mps 756 mmHg 87%
    09:00 -8°C° 0 mm 3 mps 756 mmHg 83%
    10:00 -7°C° 0 mm 3 mps 756 mmHg 80%
    11:00 -6°C° 0 mm 3 mps 756 mmHg 75%
    12:00 -6°C° 0 mm 3 mps 756 mmHg 70%
    13:00 -5°C° 0 mm 3 mps 755 mmHg 65%
    14:00 -5°C° 0 mm 3 mps 755 mmHg 67%
    15:00 -5°C° 0 mm 3 mps 754 mmHg 69%
    16:00 -6°C° 0 mm 3 mps 754 mmHg 70%
    17:00 -6°C° 0 mm 3 mps 753 mmHg 71%
    18:00 -7°C° 0 mm 4 mps 753 mmHg 72%
    19:00 -8°C° 0 mm 4 mps 752 mmHg 73%
    20:00 -7°C° 0.2 mm 4 mps 751 mmHg 79%
    21:00 -7°C° 0.2 mm 4 mps 751 mmHg 84%
    22:00 -7°C° 0.2 mm 5 mps 750 mmHg 89%
    23:00 -6°C° 0.7 mm 5 mps 749 mmHg 90%

    6 April, Monday

    Time Temperature Precipitation Wind Pressure Humidity
    00:00 -5°C° 0.7 mm 5 mps 749 mmHg 92%
    01:00 -4°C° 0.7 mm 5 mps 748 mmHg 93%
    02:00 -2°C° 0.7 mm 5 mps 748 mmHg 93%
    03:00 -1°C° 0.7 mm 5 mps 748 mmHg 92%
    04:00 0°C° 0.7 mm 5 mps 747 mmHg 92%
    05:00 +1°C° 0 mm 5 mps 747 mmHg 90%
    06:00 +2°C° 0 mm 5 mps 746 mmHg 87%
    07:00 +2°C° 0 mm 5 mps 746 mmHg 84%
    08:00 +3°C° 0 mm 5 mps 746 mmHg 86%
    09:00 +4°C° 0 mm 4 mps 746 mmHg 88%
    10:00 +4°C° 0 mm 4 mps 745 mmHg 89%
    11:00 +4°C° 0.2 mm 4 mps 745 mmHg 91%
    12:00 +4°C° 0.2 mm 4 mps 745 mmHg 93%
    13:00 +4°C° 0.2 mm 4 mps 745 mmHg 95%
    14:00 +4°C° 0.3 mm 4 mps 744 mmHg 94%
    15:00 +5°C° 0.3 mm 5 mps 744 mmHg 94%
    16:00 +5°C° 0.3 mm 5 mps 744 mmHg 94%
    17:00 +5°C° 0.1 mm 5 mps 744 mmHg 93%
    18:00 +5°C° 0.1 mm 5 mps 743 mmHg 92%
    19:00 +5°C° 0.1 mm 5 mps 743 mmHg 92%
    20:00 +5°C° 0 mm 4 mps 742 mmHg 89%
    21:00 +5°C° 0 mm 4 mps 742 mmHg 86%
    22:00 +5°C° 0 mm 3 mps 741 mmHg 83%
    23:00 +5°C° 0.1 mm 3 mps 741 mmHg 85%

    7 April, Tuesday

    Time Temperature Precipitation Wind Pressure Humidity
    00:00 +4°C° 0.1 mm 3 mps 741 mmHg 86%
    01:00 +4°C° 0.1 mm 3 mps 740 mmHg 88%
    02:00 +4°C° 0.6 mm 4 mps 740 mmHg 90%
    03:00 +3°C° 0.6 mm 4 mps 740 mmHg 91%
    04:00 +3°C° 0.6 mm 4 mps 741 mmHg 92%
    05:00 +2°C° 0.2 mm 5 mps 740 mmHg 91%
    06:00 +2°C° 0.2 mm 5 mps 740 mmHg 90%
    07:00 +1°C° 0.2 mm 5 mps 740 mmHg 90%
    08:00 0°C° 0.4 mm 8 mps 740 mmHg 89%
    09:00 -2°C° 0.4 mm 10 mps 740 mmHg 89%
    10:00 -2°C° 0.4 mm 12 mps 739 mmHg 88%
    11:00 -3°C° 0.5 mm 12 mps 739 mmHg 88%
    12:00 -4°C° 0.5 mm 13 mps 739 mmHg 89%
    13:00 -4°C° 0.5 mm 13 mps 739 mmHg 89%
    14:00 -4°C° 0.6 mm 14 mps 739 mmHg 88%
    15:00 -5°C° 0.6 mm 15 mps 738 mmHg 87%
    16:00 -5°C° 0.6 mm 16 mps 738 mmHg 86%
    17:00 -5°C° 1.5 mm 16 mps 737 mmHg 88%
    18:00 -6°C° 1.5 mm 17 mps 735 mmHg 91%
    19:00 -6°C° 1.5 mm 17 mps 734 mmHg 94%
    20:00 -4°C° 3.1 mm 17 mps 735 mmHg 95%
    21:00 -3°C° 3.1 mm 16 mps 736 mmHg 96%
    22:00 -2°C° 3.1 mm 16 mps 737 mmHg 97%
    23:00 -3°C° 1.9 mm 16 mps 740 mmHg 97%

    8 April, Wednesday

    Time Temperature Precipitation Wind Pressure Humidity
    00:00 -4°C° 1.9 mm 16 mps 742 mmHg 96%
    01:00 -5°C° 1.9 mm 16 mps 745 mmHg 95%
    02:00 -5°C° 1.3 mm 14 mps 747 mmHg 95%
    03:00 -5°C° 1.3 mm 12 mps 748 mmHg 95%
    04:00 -6°C° 1.3 mm 11 mps 750 mmHg 95%
    05:00 -4°C° 0.7 mm 9 mps 750 mmHg 94%
    06:00 -3°C° 0.7 mm 7 mps 751 mmHg 94%
    07:00 -2°C° 0.7 mm 5 mps 752 mmHg 93%
    08:00 -1°C° 0.7 mm 5 mps 752 mmHg 94%
    09:00 -1°C° 0.7 mm 4 mps 752 mmHg 95%
    10:00 0°C° 0.7 mm 4 mps 752 mmHg 96%
    11:00 +1°C° 0.6 mm 4 mps 751 mmHg 97%
    12:00 +1°C° 0.6 mm 5 mps 750 mmHg 98%
    13:00 +2°C° 0.6 mm 5 mps 750 mmHg 99%
    14:00 +2°C° 0.9 mm 5 mps 749 mmHg 99%
    15:00 +2°C° 0.9 mm 5 mps 749 mmHg 99%
    16:00 +3°C° 0.9 mm 4 mps 748 mmHg 98%
    17:00 +2°C° 1.6 mm 5 mps 748 mmHg 98%
    18:00 +2°C° 1.6 mm 5 mps 747 mmHg 98%
    19:00 +2°C° 1.6 mm 5 mps 747 mmHg 98%
    20:00 +2°C° 1.8 mm 5 mps 747 mmHg 98%
    21:00 +2°C° 1.8 mm 5 mps 746 mmHg 98%
    22:00 +3°C° 1.8 mm 4 mps 746 mmHg 98%
    23:00 +2°C° 2 mm 5 mps 745 mmHg 98%
    Show more